Wind_Speed
36 36 35 36 37 36 36 35 35 36 33 33 29 27 24 23 23 22 22 22 21 21 20 19 18 16 14 14 17 17 17 16 18 19 21 21 21 19 19 18 18 18 18
39 39 39 39 40 40 40 41 41 39 38 36 29 26 26 26 26 26 26 25 24 24 25 25 23 21 22 23 22 21 21 21 22 22 23 23 23 23 23 22 23 23 22
43 42 42 42 43 43 44 45 43 43 42 37 33 25 25 26 26 27 28 29 28 28 27 26 28 29 29 29 29 28 27 27 27 27 26 26 26 27 26 26 25 24 25
45 44 42 41 41 44 44 41 40 40 38 37 33 29 27 28 28 29 30 31 32 32 32 33 33 33 33 32 34 35 33 32 33 34 34 32 30 30 28 30 29 27 26
45 43 41 39 41 37 37 37 35 34 34 31 31 33 32 32 32 34 34 34 36 35 36 35 35 37 38 39 38 37 38 36 38 39 38 37 36 34 32 30 31 31 30
43 40 38 38 36 33 31 32 32 29 27 29 32 34 36 35 34 32 32 34 34 38 40 40 40 40 39 38 37 36 38 41 44 45 42 42 39 37 34 35 34 34 34
39 37 37 36 32 29 27 28 27 25 25 27 29 30 29 29 28 26 27 27 29 31 34 39 43 41 42 43 42 42 44 48 48 47 46 44 44 41 38 37 39 39 38
39 38 39 36 32 30 28 27 26 25 24 24 24 24 26 26 25 24 24 24 24 25 26 27 27 29 30 33 37 38 39 41 43 45 46 45 44 44 43 43 42 42 42
39 39 39 37 34 34 32 30 30 29 28 27 29 29 29 29 28 27 26 26 25 26 27 28 27 28 28 29 32 33 34 35 34 36 40 43 46 47 47 45 45 45 45
41 41 42 40 38 37 37 36 35 34 34 33 32 33 33 32 32 33 32 31 32 32 31 30 31 30 31 32 34 35 36 34 33 29 29 35 40 42 46 47 47 48 46
43 42 44 42 42 42 41 40 41 41 40 40 39 38 38 39 38 39 38 39 38 38 38 38 37 38 37 37 36 37 39 37 36 35 34 34 35 37 41 44 44 45 47
47 46 45 47 47 46 46 46 46 46 46 45 46 46 46 45 45 45 45 46 46 47 46 46 45 44 46 46 44 44 44 42 42 42 41 40 40 40 39 39 40 42 45
55 54 52 51 53 53 52 51 50 50 50 50 50 50 51 51 52 52 52 53 53 54 55 54 53 53 53 53 53 51 51 51 49 49 48 47 45 45 44 43 43 42 41
61 60 60 61 61 58 58 58 58 57 58 58 58 57 57 57 58 59 59 60 60 60 60 60 60 60 60 61 61 60 59 56 56 56 56 55 55 54 52 50 47 46 46
64 65 66 66 66 65 65 64 64 64 66 66 67 66 66 67 67 68 68 69 68 68 69 69 69 70 70 71 69 69 69 67 66 64 64 65 63 61 60 58 57 56 54
63 64 65 66 67 68 68 68 69 68 68 68 68 69 69 69 69 70 71 73 75 74 74 74 75 76 75 76 75 75 76 74 73 73 72 71 70 67 67 67 65 64 64
64 64 64 65 66 67 68 68 68 69 69 71 72 73 73 72 75 75 72 74 75 76 76 76 77 76 77 78 76 78 78 79 80 79 78 78 77 75 73 74 74 73 71
65 66 66 65 65 65 65 65 66 67 68 69 69 70 72 74 73 74 75 77 79 80 82 82 82 83 85 84 85 84 85 85 86 87 86 86 85 82 82 80 77 76 75
61 62 62 64 65 66 66 67 68 69 71 72 72 74 76 77 77 79 82 83 85 86 87 88 90 88 88 90 91 91 91 91 92 92 91 91 91 91 91 89 87 82 81
61 59 60 62 63 65 67 68 69 70 72 74 77 78 80 80 82 84 84 85 86 87 88 90 90 90 90 91 92 91 90 90 92 93 93 94 93 92 94 92 92 91 87
64 63 62 62 63 65 67 69 71 74 76 78 80 82 84 86 86 86 86 86 87 89 89 91 92 93 94 93 92 93 95 94 94 93 93 91 91 90 91 92 95 91 91
67 67 67 67 67 69 71 73 76 78 79 81 83 85 86 87 89 90 91 92 92 93 94 95 96 97 97 98 97 96 97 97 96 94 95 95 96 95 92 91 91 94 96
71 72 71 71 71 73 75 78 80 81 83 84 85 86 87 89 91 91 91 91 91 92 94 95 96 97 99 99 98 96 94 96 99 99 98 97 98 97 97 95 94 90 91
74 73 71 72 75 78 79 79 80 79 78 77 77 76 75 74 76 78 79 78 79 80 81 82 85 86 87 87 87 87 87 86 86 86 90 90 90 94 96 97 99 100 98
67 70 73 74 73 71 69 68 66 64 64 64 67 68 70 72 74 75 75 75 75 75 76 78 80 83 83 83 84 85 87 89 90 87 87 90 89 88 90 92 93 96 100
66 66 67 65 64 61 61 61 62 63 66 68 69 69 67 65 63 60 57 57 57 54 54 58 61 64 66 66 67 72 77 81 85 87 86 87 90 91 90 90 90 92 93
Wind_Direction
281 282 284 285 287 287 289 291 292 293 291 291 284 275 271 273 276 277 277 277 277 277 276 278 277 274 273 280 286 289 285 288 296 301 304 306 304 300 293 286 285 284 284
279 280 282 285 286 287 286 288 289 286 288 288 283 269 266 265 269 270 273 273 270 272 274 278 275 277 276 282 282 280 280 284 290 294 291 294 295 296 292 289 289 282 280
277 278 281 285 287 286 286 287 285 286 286 281 280 263 261 267 267 270 272 273 272 269 268 268 271 276 279 282 283 286 284 284 286 290 290 285 286 288 286 282 282 282 279
278 278 284 284 286 287 288 287 285 286 282 279 272 260 255 260 265 270 273 273 269 267 268 267 268 271 271 274 279 279 280 282 282 285 285 287 285 281 282 279 279 280 282
277 277 280 287 288 286 286 286 283 281 277 271 266 265 268 266 266 269 270 266 266 269 268 265 269 272 272 274 276 278 277 278 283 284 281 280 284 283 280 274 274 274 275
276 276 280 285 284 283 282 283 282 276 270 268 269 266 270 271 272 269 267 259 263 268 269 267 266 267 270 272 272 272 273 279 282 281 278 279 278 281 283 283 279 276 273
274 275 281 284 283 281 282 282 276 272 270 270 271 271 270 270 269 270 266 258 259 264 270 268 269 269 268 265 271 275 276 279 278 276 276 277 278 276 276 274 280 281 279
273 274 281 280 279 277 279 278 273 273 271 268 267 269 270 271 272 272 269 264 262 263 265 265 266 265 266 266 268 271 274 277 277 274 271 272 273 274 275 275 274 272 275
270 272 280 280 278 276 275 275 277 276 278 274 272 273 273 273 274 271 272 269 268 271 273 271 267 266 266 267 269 271 275 278 281 275 270 269 271 272 273 273 273 273 273
266 268 276 277 276 276 276 277 279 278 279 278 278 278 278 275 276 275 273 271 271 273 273 273 272 268 267 267 270 274 276 279 281 280 279 273 270 271 273 273 275 274 272
264 265 271 275 275 274 273 274 276 278 278 278 277 276 276 277 278 277 278 278 277 276 277 276 275 276 275 271 270 272 274 275 278 279 278 277 278 275 273 272 273 274 273
261 262 265 271 272 271 271 272 274 275 277 278 280 280 280 279 277 278 278 279 278 279 279 278 278 278 278 278 275 274 272 272 273 275 276 275 275 276 276 277 275 274 274
259 260 262 266 272 270 270 269 271 272 273 275 276 277 277 278 279 280 280 281 281 282 282 281 281 282 280 280 279 278 277 273 272 273 274 272 274 276 275 274 274 276 275
257 260 261 264 267 268 267 266 268 269 269 270 272 272 272 273 275 276 277 278 277 277 277 277 278 278 278 279 280 279 279 277 273 273 272 273 272 273 273 270 271 273 275
258 258 260 264 267 268 270 269 269 269 269 270 272 271 271 271 272 272 272 272 272 273 274 274 274 274 274 274 274 274 275 274 273 273 272 272 272 272 272 269 271 270 272
264 264 264 265 266 267 269 270 271 272 272 272 271 271 273 274 274 275 274 273 271 271 272 272 272 272 271 271 271 271 271 271 272 273 274 274 273 271 271 270 269 270 270
268 268 268 269 269 270 270 272 273 274 275 275 273 272 273 272 273 273 273 273 271 271 272 272 272 271 271 270 270 270 269 270 269 270 270 271 271 270 269 269 269 269 269
271 272 272 274 275 276 275 275 275 275 275 276 277 276 274 274 273 273 274 274 272 270 270 271 271 270 267 266 267 267 266 266 267 267 267 268 268 269 269 268 267 268 267
271 272 273 274 275 275 276 276 276 277 277 277 277 276 275 274 274 273 274 274 275 274 274 274 272 271 270 269 267 267 267 265 265 264 263 263 264 265 265 265 265 264 265
272 273 275 273 273 274 276 275 275 276 275 274 273 272 273 273 272 272 271 270 270 271 271 271 270 269 268 267 268 269 269 268 268 267 265 263 262 261 261 262 263 264 262
273 273 273 275 276 275 275 275 274 272 273 274 273 272 271 271 270 269 268 267 268 268 268 268 268 268 269 270 271 270 269 269 268 268 269 269 268 266 263 261 261 260 260
272 273 274 276 276 277 278 280 280 279 278 277 275 273 272 272 271 271 270 268 269 268 268 269 269 270 270 272 273 272 270 269 268 267 267 268 267 267 267 265 261 259 258
276 276 277 279 280 282 283 283 283 282 281 280 280 280 278 276 275 276 277 277 275 273 272 270 269 268 268 269 271 272 270 268 268 268 268 267 266 265 265 263 263 261 259
279 281 283 282 283 284 284 284 284 283 282 282 282 283 283 282 282 280 279 278 276 275 274 273 272 272 271 271 270 271 271 271 270 268 269 269 267 265 265 264 263 261 260
280 279 281 283 283 284 285 284 284 284 285 285 285 285 286 285 283 283 283 282 279 277 275 273 272 271 270 270 269 269 268 268 269 269 268 269 269 268 266 265 264 263 261
280 281 282 284 284 283 284 284 285 286 286 288 289 290 290 292 291 290 289 288 285 282 283 281 279 277 276 273 271 270 270 269 269 268 268 268 268 269 268 267 266 265 264
Height
10885 10886 10886 10886 10887 10887 10887 10886 10886 10885 10885 10885 10885 10885 10884 10883 10883 10882 10882 10882 10883 10883 10884 10884 10884 10884 10884 10884 10884 10884 10883 10883 10883 10883 10882 10882 10881 10881 10880 10879 10879 10878 10877
10881 10882 10882 10882 10882 10881 10881 10879 10879 10879 10879 10879 10880 10880 10880 10879 10879 10879 10878 10878 10879 10879 10880 10880 10881 10881 10881 10881 10881 10881 10881 10880 10880 10880 10880 10880 10879 10878 10877 10877 10876 10875 10874
10876 10877 10877 10878 10877 10876 10875 10875 10873 10873 10873 10873 10874 10875 10875 10875 10875 10875 10875 10875 10875 10875 10875 10875 10876 10876 10877 10876 10876 10876 10876 10876 10876 10876 10876 10876 10875 10875 10874 10874 10873 10872 10871
10871 10872 10872 10872 10872 10871 10869 10868 10868 10867 10866 10867 10868 10869 10870 10870 10870 10871 10870 10870 10869 10869 10869 10869 10869 10870 10870 10871 10871 10871 10871 10870 10870 10870 10870 10870 10870 10869 10869 10869 10868 10868 10867
10867 10867 10867 10868 10866 10865 10864 10863 10862 10861 10860 10860 10861 10863 10864 10865 10865 10864 10864 10863 10863 10863 10864 10864 10864 10864 10864 10864 10865 10865 10865 10864 10864 10864 10863 10864 10864 10863 10863 10863 10863 10862 10862
10862 10862 10862 10862 10861 10860 10859 10858 10857 10856 10855 10855 10855 10856 10857 10858 10858 10857 10856 10857 10858 10858 10858 10857 10858 10858 10858 10857 10858 10858 10858 10858 10857 10856 10856 10856 10856 10857 10856 10856 10856 10856 10855
10857 10857 10857 10857 10857 10856 10855 10853 10852 10851 10851 10851 10850 10850 10850 10851 10851 10851 10850 10850 10850 10850 10851 10851 10851 10851 10850 10851 10850 10850 10850 10850 10849 10849 10848 10849 10849 10849 10849 10849 10849 10848 10848
10851 10852 10852 10851 10851 10851 10850 10850 10849 10848 10848 10848 10847 10846 10846 10846 10845 10845 10844 10844 10844 10844 10844 10844 10844 10844 10843 10843 10843 10843 10843 10842 10840 10840 10840 10840 10841 10840 10841 10841 10841 10840 10840
10845 10845 10846 10845 10845 10845 10845 10845 10845 10844 10844 10844 10844 10843 10842 10841 10841 10840 10839 10839 10839 10839 10839 10838 10838 10837 10837 10837 10836 10836 10835 10834 10833 10832 10832 10832 10832 10832 10833 10833 10833 10832 10832
10838 10839 10839 10839 10838 10838 10838 10839 10839 10840 10839 10839 10839 10838 10837 10837 10836 10835 10834 10834 10832 10832 10832 10832 10831 10831 10831 10830 10830 10830 10828 10828 10827 10826 10825 10824 10824 10824 10823 10823 10823 10823 10823
10830 10831 10831 10832 10832 10832 10832 10832 10832 10832 10832 10832 10832 10831 10831 10830 10830 10829 10829 10827 10827 10826 10825 10825 10824 10824 10823 10823 10823 10823 10821 10821 10820 10819 10819 10818 10817 10816 10816 10815 10815 10814 10814
10822 10823 10823 10824 10824 10824 10824 10824 10824 10824 10824 10824 10823 10822 10822 10822 10821 10822 10821 10820 10819 10817 10817 10816 10816 10816 10814 10813 10814 10814 10813 10812 10812 10811 10811 10810 10810 10810 10809 10808 10807 10806 10805
10814 10815 10815 10815 10816 10816 10817 10816 10816 10815 10815 10814 10814 10813 10813 10812 10811 10810 10810 10809 10809 10808 10806 10806 10805 10804 10804 10803 10803 10803 10803 10803 10802 10801 10801 10801 10801 10801 10801 10800 10799 10798 10797
10805 10805 10805 10806 10806 10807 10808 10807 10807 10806 10806 10805 10805 10804 10803 10802 10801 10800 10799 10798 10797 10796 10795 10794 10794 10794 10793 10791 10790 10790 10790 10789 10790 10790 10790 10789 10790 10790 10790 10790 10790 10789 10788
10795 10795 10795 10795 10795 10796 10795 10795 10795 10795 10794 10794 10793 10792 10792 10791 10789 10788 10787 10785 10784 10783 10783 10782 10781 10781 10780 10779 10779 10778 10777 10776 10775 10776 10776 10776 10775 10778 10777 10778 10778 10778 10778
10783 10783 10783 10783 10783 10783 10783 10783 10782 10782 10782 10781 10779 10778 10777 10777 10774 10773 10770 10769 10767 10767 10766 10767 10765 10764 10763 10762 10762 10762 10761 10761 10761 10760 10760 10760 10760 10761 10763 10762 10764 10765 10765
10769 10770 10770 10770 10771 10770 10770 10769 10767 10765 10765 10764 10763 10763 10761 10759 10758 10756 10754 10752 10751 10749 10749 10748 10747 10746 10744 10744 10744 10743 10743 10743 10744 10744 10743 10742 10743 10743 10744 10746 10746 10748 10750
10756 10756 10757 10757 10756 10755 10754 10754 10752 10751 10748 10747 10745 10744 10743 10741 10740 10738 10736 10732 10730 10730 10730 10729 10726 10725 10724 10723 10722 10722 10722 10722 10723 10725 10725 10724 10724 10725 10724 10727 10730 10730 10732
10743 10743 10743 10743 10743 10741 10739 10737 10736 10734 10732 10731 10729 10727 10725 10723 10722 10720 10717 10715 10711 10709 10707 10704 10703 10701 10701 10699 10700 10699 10699 10700 10700 10701 10703 10703 10704 10705 10704 10705 10707 10712 10714
10731 10730 10730 10729 10727 10726 10723 10722 10720 10718 10716 10713 10710 10708 10706 10704 10702 10699 10696 10693 10689 10686 10684 10681 10679 10678 10677 10676 10675 10678 10678 10676 10674 10676 10678 10679 10679 10681 10681 10684 10686 10688 10693
10717 10716 10715 10714 10712 10711 10709 10706 10703 10701 10699 10696 10692 10688 10684 10681 10679 10677 10674 10671 10669 10665 10661 10658 10655 10655 10653 10652 10654 10654 10655 10655 10654 10652 10650 10654 10657 10659 10660 10663 10664 10666 10668
10703 10703 10701 10699 10698 10696 10693 10689 10685 10681 10679 10675 10671 10667 10663 10659 10655 10653 10650 10647 10646 10645 10642 10638 10634 10632 10631 10630 10630 10631 10631 10631 10630 10629 10630 10631 10631 10632 10635 10636 10639 10642 10644
10689 10688 10686 10685 10683 10679 10676 10671 10666 10662 10656 10652 10648 10645 10641 10636 10632 10631 10629 10626 10623 10621 10617 10614 10611 10608 10608 10606 10605 10603 10604 10607 10606 10604 10606 10607 10606 10607 10608 10611 10612 10618 10620
10674 10673 10671 10669 10666 10662 10657 10653 10648 10642 10637 10634 10629 10625 10621 10617 10611 10607 10603 10600 10597 10594 10592 10589 10587 10585 10584 10582 10581 10579 10578 10580 10581 10583 10579 10579 10582 10582 10582 10585 10587 10590 10593
10661 10658 10656 10653 10648 10644 10640 10636 10631 10626 10621 10616 10611 10607 10602 10597 10591 10587 10583 10578 10574 10570 10567 10565 10562 10560 10560 10558 10558 10555 10555 10556 10556 10559 10560 10555 10555 10557 10556 10557 10560 10560 10560
10646 10643 10640 10637 10633 10629 10625 10621 10616 10611 10606 10601 10596 10591 10585 10579 10573 10568 10565 10560 10555 10551 10547 10544 10540 10539 10537 10535 10534 10533 10534 10534 10534 10533 10535 10536 10536 10531 10529 10530 10532 10534 10535